Weather in Lerwick

United Kingdom     60°09′32″N   1°09′26″W
temp.,
°C
wind,
m/s
gust,
m/s
humid.,
%
clouds,
%
prec.,
mm/h
press.,
hPa
HPBL,
m
9 march, tue
tue900:00+5s61085100 0.1 1016602
03:00+5s698897 0.0 1015554
06:00+5s6108998 0.0 1014537
09:00+6sse7118797 0.0 1012577
12:00+7s9138698 0.0 1011625
15:00+6sse101487100 0.0 1008700
18:00+7sse131887100 0.1 10041118
21:00+7sse152284100 0.0 9991245
10 march, wed
wed1000:00+7sse182588100 1.9 9941475
03:00+6s162391100 10.9 9901352
06:00+6sw81378100 16.5 9881102
09:00+6wsw9137768 0.3 9891395
12:00+7sw10137152 0.9 9911343
15:00+6s9127173 0.2 9891289
18:00+5sse10147663 0.3 9841109
21:00+3sse131895100 1.1 977921
11 march, thu
thu1100:00+7s131791100 4.9 969950
03:00+7ssw7128898 0.2 964607
06:00+6s8138568 0.2 962763
09:00+7ssw9138793 0.1 962930
12:00+6wsw15208297 0.3 9631235
15:00+6wsw12176599 0.1 9661765
18:00+5wsw10146869 0.3 9681201
21:00+4sw9127888 0.1 969898
12 march, fri
fri1200:00+5wsw6117652 0.5 971538
03:00+5w91371100 0.9 9731093
06:00+5w111572100 1.9 9751336
09:00+5w10147196 0.5 9771498
12:00+5wsw10156698 1.3 9791734
15:00+5wsw101468100 0.6 9801520
18:00+5wsw91471100 1.2 9801191
21:00+4sw8127494 0.4 980809
13 march, sat
sat1300:00+4sw7117577 1.1 979786
03:00+4sw71174100 0.6 979690
06:00+3sw597361 0.6 979485
09:00+5sw687865 0.3 979899
12:00+6sw577382 1.8 980895
15:00+6sw6870100 1.3 981802
18:00+5wsw597678 1.6 982484
21:00+5w487772 0.2 983345